Lapse_Rate
4.9 5.2 5.6 4.9 5.0 5.5 5.2 5.5 5.5 6.1 6.1 6.1 6.0 6.0 5.7 6.3 6.3 6.8 6.5 6.5 6.5 6.4 6.1 5.9 5.9 5.9 5.8 5.8 5.7 5.7 5.7 5.8 6.0 5.8 5.9 6.0 6.1 6.1 6.0 6.4 6.6 6.6 6.7
4.9 4.9 5.3 5.6 5.4 5.0 5.4 5.4 5.6 6.3 5.8 5.3 6.0 6.5 6.4 6.5 6.3 6.6 6.6 6.5 6.4 6.1 5.8 5.7 5.7 5.8 6.0 6.1 6.1 6.0 6.0 6.1 5.7 5.7 5.8 5.8 6.1 6.4 6.1 6.4 6.4 6.5 6.6
5.5 5.3 4.9 5.2 5.7 5.0 5.2 5.2 5.2 5.5 5.2 5.4 6.1 6.5 6.3 6.5 6.5 6.2 6.3 6.5 6.4 6.2 5.8 5.8 5.6 5.7 5.9 6.0 6.0 6.0 5.9 5.9 5.7 5.6 5.8 5.7 6.0 6.2 6.0 6.0 6.2 6.3 6.2
5.6 5.4 4.8 5.2 5.1 4.8 5.6 5.0 5.2 5.3 5.1 5.6 6.1 6.6 6.7 6.6 6.5 6.2 6.3 6.3 6.2 5.9 6.0 5.4 5.5 5.6 5.7 5.8 5.8 5.7 5.5 5.5 5.6 5.5 5.7 5.7 6.0 5.8 5.7 5.8 6.0 6.0 6.0
5.6 5.4 5.2 5.6 5.3 5.2 5.0 5.1 5.2 5.3 5.5 5.4 5.2 5.6 6.3 6.6 6.2 6.1 6.3 5.7 4.7 6.1 5.5 5.6 5.3 5.4 5.7 5.6 5.7 5.7 5.6 5.4 5.4 5.4 5.6 5.6 5.6 5.6 5.4 5.6 5.5 5.5 5.4
5.9 5.7 4.9 4.9 4.9 4.9 5.7 6.2 5.3 5.4 5.6 5.5 5.7 5.5 5.2 5.4 5.4 5.5 5.6 5.5 5.6 5.6 6.0 5.5 5.6 5.8 5.7 5.4 5.5 5.8 5.9 5.5 5.3 5.3 5.4 5.6 5.6 5.6 5.4 5.3 5.2 5.1 5.0
5.8 5.7 5.7 5.5 5.2 5.3 5.5 5.3 5.3 5.4 5.6 5.6 5.2 5.6 5.5 5.3 5.3 5.3 5.3 5.5 5.8 5.5 4.6 5.3 5.4 5.6 5.4 5.2 5.1 5.3 5.8 5.7 5.5 5.3 5.3 5.3 5.5 5.6 5.5 5.3 5.2 5.1 5.0
6.0 5.7 5.6 5.2 5.1 5.2 5.3 5.5 5.4 5.6 5.6 6.1 5.5 5.3 5.5 5.9 5.5 5.4 5.3 5.0 5.6 5.4 5.5 5.4 5.5 5.0 5.2 5.1 5.2 5.0 5.5 5.8 5.6 5.5 5.4 5.3 5.3 5.4 5.4 5.3 5.2 5.1 5.1
6.0 5.9 5.8 5.6 5.9 5.8 5.6 5.9 5.9 5.8 6.0 5.9 5.8 5.8 5.4 5.7 5.8 5.4 5.7 5.6 6.0 5.4 5.2 5.5 5.5 5.6 4.9 5.5 5.0 5.2 5.0 5.5 5.5 5.5 5.5 5.4 5.5 5.4 5.2 5.1 5.0 5.1 5.1
6.0 6.0 6.1 5.9 6.0 5.7 6.0 6.2 6.1 6.1 6.0 6.1 5.7 5.6 5.9 5.8 5.5 5.4 5.5 5.4 5.6 5.3 5.4 5.2 5.4 5.2 5.0 5.3 5.9 5.2 5.2 5.3 5.4 5.4 5.4 5.5 5.7 5.7 5.4 5.2 5.1 5.2 5.2
6.0 6.0 6.3 6.2 6.1 5.9 6.0 6.1 6.2 6.2 6.2 6.1 5.8 6.1 6.3 5.5 5.5 5.9 6.1 5.7 5.5 5.4 5.2 5.3 5.0 5.1 5.2 5.3 5.0 5.5 5.7 5.4 5.1 5.2 5.3 5.3 5.2 5.3 5.4 5.4 5.3 5.3 5.2
5.9 5.9 6.1 6.3 6.3 6.1 5.9 6.0 6.0 6.2 6.2 6.3 6.0 6.0 5.9 5.7 5.0 5.4 5.2 5.2 5.4 5.3 5.1 5.2 4.9 5.1 5.1 5.5 5.5 5.1 5.1 5.4 5.3 5.3 5.3 5.3 5.2 5.1 5.0 5.1 5.2 5.2 5.3
5.3 5.6 5.9 6.2 6.3 6.2 6.1 6.0 6.0 6.0 5.9 6.1 6.2 5.9 5.8 5.6 5.2 5.1 5.1 5.2 5.1 5.2 5.1 5.0 5.0 5.0 5.3 5.4 5.4 5.6 5.0 5.4 5.5 5.4 5.4 5.4 5.4 5.2 5.1 5.1 5.1 5.2 5.3
5.8 5.6 5.8 6.2 6.4 6.2 6.2 6.2 5.8 5.9 5.8 5.8 5.9 5.9 5.9 5.5 5.2 5.0 4.8 4.7 5.0 5.1 5.1 5.1 5.0 5.2 5.1 5.4 5.9 5.2 5.2 5.4 5.3 5.5 5.6 5.6 5.5 5.3 5.3 5.2 5.0 4.9 4.9
6.1 5.7 5.6 5.6 5.8 5.9 6.2 6.3 6.1 6.0 6.0 5.9 5.8 5.9 5.7 5.5 5.1 5.1 4.8 4.8 4.8 4.9 5.1 5.4 5.5 5.4 5.0 5.6 5.2 5.5 5.4 5.4 5.4 5.3 5.3 5.3 5.3 5.4 5.3 5.1 5.1 5.1 4.9
5.8 5.9 6.1 6.0 5.9 6.0 5.9 6.1 5.9 6.0 6.1 6.0 6.0 5.8 5.7 5.5 5.6 5.4 5.3 5.0 5.2 5.5 5.6 4.8 4.9 4.9 5.0 5.4 5.3 5.1 5.3 5.5 5.5 5.3 5.2 5.3 5.4 5.3 5.2 5.1 5.1 5.1 5.0
6.0 5.8 5.9 5.7 6.1 6.1 6.2 6.0 6.0 5.9 6.1 6.0 6.0 6.1 6.2 5.9 5.7 5.6 5.4 5.7 5.7 5.5 5.4 5.1 5.4 5.3 5.2 5.6 5.5 5.2 5.4 5.6 5.7 5.5 5.6 5.4 5.3 5.2 5.1 5.2 5.0 5.0 5.0
6.0 6.0 6.0 6.0 5.9 6.0 6.1 6.1 5.9 6.0 6.1 6.1 6.0 6.0 5.9 5.8 5.9 5.7 5.7 5.7 5.8 5.9 5.7 5.7 5.4 5.3 5.3 5.8 5.6 5.5 5.3 5.6 5.4 5.6 5.5 5.4 5.3 5.2 5.1 4.9 4.9 4.9 4.9
6.2 6.2 6.2 6.2 6.0 5.8 5.9 6.0 6.0 5.8 5.9 6.1 6.1 5.9 6.0 6.0 6.0 6.0 6.0 6.0 5.9 5.9 5.7 5.7 5.6 5.6 5.5 5.8 5.7 5.8 5.5 5.5 5.4 5.4 5.3 5.3 5.2 5.1 4.8 4.8 4.7 4.7 4.8
6.0 6.0 6.1 6.3 6.3 6.1 5.9 5.9 5.9 5.9 5.9 6.0 6.0 5.9 6.0 6.1 6.0 6.0 6.0 6.0 6.0 6.0 5.8 5.9 5.9 5.8 5.8 5.9 6.1 5.6 5.6 5.6 5.4 5.5 5.2 5.1 4.9 5.0 4.9 4.7 4.7 4.7 4.7
6.2 6.1 5.8 5.9 6.1 6.2 6.1 6.0 6.0 5.9 6.0 6.2 6.2 6.1 5.9 6.0 6.0 5.9 6.0 5.9 5.9 5.9 6.0 5.9 5.9 5.8 5.8 5.9 5.9 5.6 5.5 5.6 5.5 5.3 5.1 5.3 5.0 4.8 4.4 4.4 4.5 4.5 4.6
6.1 6.0 6.0 5.7 5.7 5.8 5.9 5.8 6.1 6.0 6.1 6.2 6.3 6.2 6.1 6.1 5.9 5.9 5.9 5.8 5.8 6.0 5.8 5.9 5.8 6.1 6.0 5.9 5.7 5.7 5.6 5.5 5.3 5.3 5.2 4.7 4.3 4.2 4.5 4.3 4.2 4.3 4.7
6.0 5.7 5.7 5.9 5.8 5.9 5.9 5.7 5.6 5.9 6.0 6.1 6.1 6.1 6.0 6.0 6.1 5.9 6.0 5.9 5.8 5.9 6.0 5.8 6.0 5.8 5.8 5.8 5.7 5.7 5.5 5.3 5.2 5.1 5.0 4.5 4.5 4.5 4.1 4.2 4.5 4.7 4.9
6.2 5.9 5.5 5.7 6.0 6.0 6.1 6.0 5.6 5.7 5.8 5.8 5.9 6.1 6.2 5.8 5.8 6.0 5.8 5.7 5.9 6.0 5.6 5.7 5.8 5.7 5.7 5.6 5.6 5.6 5.5 5.3 4.9 5.0 4.7 4.5 4.5 4.4 4.2 4.5 5.0 5.4 5.5
6.3 6.2 6.3 6.2 6.2 6.2 6.3 6.1 6.0 5.7 5.7 5.8 5.8 5.6 6.3 6.0 5.8 5.8 5.6 5.5 5.8 5.7 5.6 5.5 5.4 5.3 5.5 5.4 5.3 5.5 5.0 4.9 4.4 4.6 4.4 4.4 4.5 5.1 5.6 5.1 5.7 5.9 5.9
6.0 6.2 6.4 6.4 6.4 6.7 6.7 6.4 6.2 5.8 5.6 5.7 5.8 5.6 5.8 6.0 5.8 5.5 5.4 5.4 5.4 5.6 5.5 5.4 5.3 5.3 5.3 5.3 5.2 4.8 4.7 4.7 4.8 4.8 4.8 5.1 5.2 5.4 5.6 6.6 6.5 6.6 6.7
Wind_Speed
3 10 5 11 15 12 12 11 8 6 4 8 4 2 5 10 7 14 13 19 17 15 12 11 11 11 11 11 10 11 13 12 11 10 11 12 10 9 11 6 4 4 6
3 3 2 4 7 7 5 5 2 4 4 6 4 4 4 10 3 3 12 15 20 21 20 18 16 14 13 12 11 10 10 10 10 11 11 10 10 6 7 3 4 4 4
6 1 3 6 3 4 9 9 5 6 4 3 6 5 5 4 8 2 7 15 17 19 20 17 16 14 14 12 11 9 8 6 7 9 10 9 12 4 3 2 3 4 4
7 6 7 6 14 6 8 3 6 6 4 2 4 4 3 4 6 8 10 4 11 14 18 18 16 16 14 11 9 7 5 5 6 7 11 8 5 5 3 3 5 5 5
13 5 16 18 11 4 6 4 9 8 4 3 4 2 3 3 6 9 8 8 28 24 13 18 18 19 12 8 6 6 4 3 4 6 8 5 5 5 5 5 5 6 6
9 5 1 1 4 5 6 4 10 6 4 5 7 8 7 9 10 12 10 19 21 23 8 17 15 12 15 9 6 6 5 4 3 5 2 3 3 4 5 5 3 5 7
8 6 4 4 2 3 5 4 4 7 6 2 4 5 4 10 14 11 11 10 5 4 26 10 7 12 12 10 5 5 4 3 2 2 2 3 2 2 3 3 1 3 5
7 5 4 5 3 3 1 3 1 3 5 4 2 2 1 5 6 7 11 10 5 4 9 8 13 4 8 10 9 8 5 3 1 2 4 1 2 2 2 3 2 1 2
9 9 5 3 4 4 1 3 3 6 3 5 1 2 3 3 3 6 1 3 5 6 4 10 12 11 10 16 12 10 8 5 1 2 3 4 1 1 2 3 3 4 4
8 10 9 5 3 4 4 4 3 2 4 4 3 3 2 3 2 4 2 5 7 7 6 2 4 13 14 10 12 14 11 7 5 3 2 3 3 1 3 4 5 6 6
9 9 10 7 5 4 4 4 3 1 3 4 3 3 2 1 6 4 5 3 4 5 4 2 4 7 11 18 11 13 12 10 7 4 2 2 2 3 4 4 5 6 7
7 6 8 7 6 4 3 4 5 5 3 5 4 4 2 2 3 3 4 5 4 4 1 6 2 5 10 19 12 9 8 10 7 6 3 2 3 4 4 4 5 6 7
5 8 8 7 5 6 5 4 4 4 4 5 4 4 4 3 3 2 2 4 3 4 3 5 4 9 15 17 13 13 6 11 8 7 6 4 3 4 5 6 7 8 9
6 4 6 6 6 6 5 5 4 4 8 5 6 4 5 4 5 3 3 2 3 2 4 3 9 7 6 13 15 16 9 12 11 12 8 6 5 5 6 8 9 10 11
7 6 8 6 6 8 8 7 4 5 6 5 5 7 5 5 5 5 3 2 4 3 1 1 3 4 3 10 6 13 12 13 14 12 10 9 8 7 7 8 9 10 10
6 8 6 5 7 5 7 7 6 8 9 6 6 5 6 6 7 4 4 5 2 2 1 3 4 3 1 3 5 9 10 13 15 11 9 11 10 8 8 8 9 9 10
5 6 8 10 9 8 7 7 8 6 4 5 6 5 4 5 5 4 6 5 3 2 2 3 1 2 6 3 4 6 16 12 10 10 10 12 12 10 9 9 9 9 9
7 6 6 7 7 6 7 6 7 8 7 7 6 7 6 5 5 3 5 6 4 3 0 3 2 3 1 4 2 2 7 10 11 8 11 14 13 11 10 9 9 9 9
10 10 9 8 8 8 7 6 7 8 9 7 7 7 6 6 5 4 5 8 4 3 2 2 3 1 2 2 3 1 5 7 9 12 11 13 13 11 11 10 11 12 12
11 11 11 10 11 11 11 10 9 9 9 8 7 6 6 7 6 7 5 8 5 4 2 3 2 2 1 2 2 1 2 3 4 10 11 11 11 10 11 12 11 10 11
11 12 11 11 11 12 10 12 11 11 11 10 8 6 7 4 4 5 4 5 4 5 2 2 3 2 1 3 2 1 1 4 5 4 4 5 7 7 8 9 10 9 9
10 11 12 14 14 11 15 18 17 13 12 12 11 8 6 6 4 4 6 9 4 3 4 3 1 1 1 2 2 3 3 2 2 6 2 3 6 3 8 10 11 10 9
8 9 14 14 15 14 15 13 15 13 12 12 10 8 8 7 9 6 6 9 7 8 5 1 2 3 3 2 2 3 4 4 3 2 1 2 2 4 8 11 10 9 8
7 10 16 18 16 13 14 16 13 10 12 11 10 11 10 7 10 11 8 7 6 7 5 4 7 5 5 4 4 4 3 4 3 1 2 2 3 3 6 11 11 10 11
8 10 13 15 15 15 14 16 13 12 13 12 10 9 10 10 12 9 10 9 9 8 13 17 16 14 12 9 3 3 3 3 1 0 0 1 3 3 5 5 11 14 11
12 10 13 13 17 16 16 15 12 10 12 10 9 9 5 11 15 12 8 10 10 9 8 7 5 5 7 5 6 5 3 1 2 2 4 3 4 4 0 3 7 12 11
Wind_Direction
162 210 119 120 241 231 183 197 224 187 202 228 33 1 298 49 23 133 151 164 174 187 199 213 228 241 253 262 267 275 288 306 313 316 315 306 305 302 296 290 298 299 298
67 257 121 280 214 48 89 49 118 249 226 188 121 333 300 134 64 89 159 182 188 193 201 208 218 229 242 254 269 286 291 304 313 322 325 307 304 273 263 261 290 298 283
213 22 206 275 272 140 22 346 284 272 284 149 145 173 243 93 153 199 232 176 200 209 209 210 220 231 244 255 261 272 289 296 312 323 320 316 313 291 249 259 262 264 243
280 274 65 356 291 111 133 332 296 261 235 272 138 196 156 182 154 199 227 218 175 206 214 214 218 228 237 253 259 255 258 299 314 311 315 331 327 327 334 307 262 238 222
258 311 126 212 262 343 70 11 336 325 307 278 29 246 232 231 198 226 218 179 41 303 181 196 212 226 228 238 237 232 245 275 290 301 319 5 355 342 339 307 269 239 214
234 262 32 226 330 52 128 104 262 291 304 83 56 334 24 20 13 353 313 127 204 223 191 162 194 222 216 225 212 215 235 253 246 299 342 27 22 357 345 328 269 227 213
205 281 319 280 258 127 121 260 324 328 307 75 100 346 31 19 360 1 320 300 161 243 25 130 155 117 170 206 198 206 215 211 191 314 54 32 15 349 343 340 292 230 223
179 246 249 281 280 92 118 142 284 296 311 353 103 239 78 9 266 278 270 293 344 291 178 154 97 161 166 156 209 189 197 165 103 7 90 72 12 357 4 21 25 24 245
194 203 275 274 344 334 303 201 232 267 330 328 233 166 90 209 206 226 168 265 282 328 1 121 161 181 126 129 224 221 181 154 115 31 82 110 84 342 34 21 23 30 25
202 200 213 253 189 303 347 253 219 250 310 295 338 208 148 127 341 4 289 309 332 268 221 123 158 157 173 170 160 201 157 144 122 69 49 64 103 74 32 14 7 14 23
213 221 194 212 198 212 284 281 318 264 306 284 299 314 22 166 84 66 294 288 288 250 93 47 126 157 147 132 133 139 140 134 122 118 100 61 52 65 62 38 20 18 16
205 208 205 193 190 207 204 254 258 268 265 297 325 328 298 259 177 158 250 273 296 302 350 33 25 107 78 70 48 130 144 129 123 127 105 66 52 54 50 52 50 38 29
221 200 217 176 183 206 213 245 216 271 271 272 281 294 309 293 310 264 270 288 313 342 23 37 356 44 102 102 109 256 149 114 113 109 106 106 83 56 59 52 43 44 42
238 200 184 192 216 180 229 200 188 243 230 226 248 274 289 300 306 293 235 176 324 10 50 3 15 317 106 140 168 165 139 123 130 119 114 105 96 88 73 70 64 57 55
209 169 183 224 213 231 182 215 217 250 259 249 234 232 255 275 282 299 330 90 151 273 258 200 163 221 353 134 176 162 153 150 134 117 118 111 104 101 94 89 86 84 83
217 163 173 218 227 231 208 200 202 236 241 234 231 246 229 252 272 313 339 352 267 163 287 164 234 6 247 146 93 107 128 127 121 122 123 115 105 102 99 95 90 85 81
211 215 187 200 222 210 199 191 242 261 297 253 273 292 291 303 297 312 320 333 5 38 38 309 9 163 261 88 71 17 146 119 112 122 127 117 110 109 103 95 88 85 84
229 231 249 224 228 245 229 195 212 253 244 233 228 257 261 268 282 291 291 299 314 307 324 289 308 316 301 86 132 82 111 132 110 140 141 119 118 114 108 99 93 84 79
221 226 224 228 225 228 240 211 203 227 253 245 230 231 240 253 262 265 263 278 278 254 225 243 270 341 12 40 44 22 108 137 120 143 129 119 122 117 106 92 80 73 69
210 221 229 221 222 226 227 230 217 222 235 251 258 242 234 226 237 259 249 259 282 260 218 232 267 280 143 98 90 50 78 108 154 169 139 127 123 119 114 101 89 85 83
218 218 220 228 228 221 225 221 218 218 218 223 244 232 233 247 143 240 254 241 236 262 278 268 280 261 46 28 29 350 33 113 59 10 117 133 136 138 132 104 99 91 89
234 224 223 222 221 227 221 219 211 214 207 216 218 219 201 154 159 161 141 92 64 233 240 259 82 8 48 38 36 26 50 80 134 26 79 84 153 107 117 88 105 114 110
270 284 268 247 237 228 233 229 211 215 215 211 207 207 208 202 171 161 135 116 99 89 75 35 355 47 82 55 43 65 48 63 64 28 324 104 119 121 123 124 129 128 122
224 224 254 252 242 240 229 225 218 228 230 223 201 197 197 178 180 167 166 167 138 75 25 41 87 71 64 52 44 80 97 117 108 81 19 157 200 177 141 137 155 162 162
279 244 239 245 243 242 232 231 222 228 231 225 216 196 193 200 177 178 169 163 127 116 73 82 94 96 86 72 71 92 65 85 89 274 295 226 224 174 160 155 173 186 194
290 282 278 257 238 240 231 219 217 227 230 225 224 208 182 205 159 172 194 163 144 143 132 123 120 106 98 90 85 83 112 38 221 120 338 356 359 3 126 148 169 178 194